Location: *
(51.4660°N, 0.3360°W)
Time: 19:58:56
(UTC+00:00)

Cosmos 1437 Rocket - Pass Details

Date: 19 September 2019
Orbit: 506 x 563 km, 81.2° (Epoch: 13 October)

Event Time Altitude Azimuth Distance (km) Brightness Sun altitude
Rises 19:07:15 0° 357° (N) 2,650 6.6 -10.0°
Reaches altitude 10° 19:09:47 10° 12° (NNE) 1,750 5.4 -10.4°
Maximum altitude 19:12:50 22° 66° (ENE) 1,146 4.0 -10.9°
Enters shadow 19:14:34 17° 102° (ESE) 1,361 4.2 -11.1°
